FW6636 Weather Reports


time (UTC)temp
C
wind
direction
speed
KPH
gust
KPH
rain 1hr
cm
rain 24hr
cm
rain mn
cm
humidity
%
barometer
mb
20260831234050 20 0 0.0 0.0 0.00 0.00 0.00 90 1018.9
20260831233553 20 0 0.0 0.0 0.00 0.00 0.00 89 1018.8
20260831233105 20 0 0.0 0.0 0.00 0.00 0.00 89 1018.7
20260831232549 21 0 0.0 0.0 0.00 0.00 0.00 89 1018.8
20260831232049 21 0 0.0 0.0 0.00 0.00 0.00 89 1018.9
20260831231602 21 0 0.0 1.6 0.00 0.00 0.00 89 1018.8
20260831231056 21 0 0.0 1.6 0.00 0.00 0.00 89 1019.0
20260831230553 21 0 0.0 1.6 0.00 0.00 0.00 89 1019.1
20260831230112 21 0 0.0 0.0 0.00 0.00 0.00 89 1019.1
20260831225555 21 0 0.0 0.0 0.00 0.00 0.00 89 1019.3
20260831225053 21 0 0.0 0.0 0.00 0.00 0.00 88 1019.3
20260831224557 21 0 0.0 1.6 0.00 0.00 0.00 88 1019.3
20260831224053 21 0 0.0 1.6 0.00 0.00 0.00 88 1019.3
20260831223550 21 0 0.0 1.6 0.00 0.00 0.00 87 1019.2
20260831223106 21 0 0.0 3.2 0.00 0.00 0.00 88 1019.3
20260831222553 21 0 0.0 3.2 0.00 0.00 0.00 87 1019.2
20260831222049 21 0 0.0 1.6 0.00 0.00 0.00 87 1019.4
20260831221605 22 0 0.0 1.6 0.00 0.00 0.00 87 1019.4
20260831221051 22 0 0.0 1.6 0.00 0.00 0.00 87 1019.5
20260831220552 21 0 0.0 1.6 0.00 0.00 0.00 87 1019.5
20260831220121 22 0 0.0 0.0 0.00 0.00 0.00 88 1019.5
20260831215556 21 0 0.0 1.6 0.00 0.00 0.00 88 1019.5
20260831215050 21 0 0.0 1.6 0.00 0.00 0.00 87 1019.2
20260831214605 21 0 0.0 1.6 0.00 0.00 0.00 87 1019.3
20260831214052 21 0 0.0 1.6 0.00 0.00 0.00 87 1019.5
20260831213552 21 0 0.0 1.6 0.00 0.00 0.00 87 1019.5
20260831213123 21 0 0.0 4.8 0.00 0.00 0.00 87 1019.6
20260831212553 21 0 0.0 6.4 0.00 0.00 0.00 87 1019.6
20260831212054 21 0 0.0 6.4 0.00 0.00 0.00 86 1019.4
20260831211623 21 181 0.0 6.4 0.00 0.00 0.00 86 1019.6
20260831211052 21 0 1.6 6.4 0.00 0.00 0.00 86 1019.8
20260831210550 21 181 1.6 6.4 0.00 0.00 0.00 85 1019.7
20260831210127 21 189 3.2 6.4 0.00 0.00 0.00 85 1019.8
20260831205553 22 0 0.0 3.2 0.00 0.00 0.00 85 1019.8
20260831205051 22 0 0.0 4.8 0.00 0.00 0.00 87 1019.9
20260831204601 22 0 0.0 4.8 0.00 0.00 0.00 85 1019.9
20260831204053 21 0 0.0 0.0 0.00 0.00 0.00 85 1019.9
20260831203553 21 0 0.0 0.0 0.00 0.00 0.00 86 1019.8
20260831203115 21 0 0.0 0.0 0.00 0.00 0.00 87 1019.9
20260831202554 21 0 0.0 0.0 0.00 0.00 0.00 88 1019.9
20260831202050 21 0 0.0 0.0 0.00 0.00 0.00 88 1020.0
20260831201608 21 0 0.0 0.0 0.00 0.00 0.00 90 1019.9
20260831201052 21 0 0.0 0.0 0.00 0.00 0.00 87 1019.9
20260831200549 21 0 0.0 0.0 0.00 0.00 0.00 87 1019.9
20260831200108 21 0 0.0 6.4 0.00 0.00 0.00 87 1020.3
20260831195550 21 0 1.6 8.0 0.00 0.00 0.00 86 1020.3
20260831195051 21 0 0.0 8.0 0.00 0.00 0.00 85 1020.6
20260831194604 22 194 1.6 8.0 0.00 0.00 0.00 84 1020.5
20260831194049 22 194 1.6 4.8 0.00 0.00 0.00 83 1020.6
20260831193553 22 0 0.0 4.8 0.00 0.00 0.00 83 1020.7
20260831193102 22 0 0.0 3.2 0.00 0.00 0.00 83 1020.7
20260831192552 22 0 0.0 3.2 0.00 0.00 0.00 81 1020.8
20260831192050 22 0 0.0 3.2 0.00 0.00 0.00 82 1020.8
20260831191557 22 0 0.0 4.8 0.00 0.00 0.00 82 1020.9
20260831191052 22 0 0.0 4.8 0.00 0.00 0.00 80 1020.9
20260831190550 22 0 0.0 4.8 0.00 0.00 0.00 83 1021.0
20260831190108 22 0 0.0 4.8 0.00 0.00 0.00 81 1021.0
20260831185550 22 0 0.0 4.8 0.00 0.00 0.00 81 1021.1
20260831185051 22 0 0.0 0.0 0.00 0.00 0.00 81 1021.1
20260831184611 22 0 0.0 0.0 0.00 0.00 0.00 81 1021.1
20260831184052 22 0 0.0 0.0 0.00 0.00 0.00 81 1021.1
20260831183549 22 0 0.0 0.0 0.00 0.00 0.00 81 1021.1
20260831183101 22 0 0.0 1.6 0.00 0.00 0.00 82 1021.1
20260831182553 22 0 0.0 1.6 0.00 0.00 0.00 84 1021.2
20260831182053 21 0 0.0 1.6 0.00 0.00 0.00 82 1021.3
20260831181602 21 0 0.0 1.6 0.00 0.00 0.00 82 1021.3
20260831181054 22 0 0.0 1.6 0.00 0.00 0.00 82 1021.2
20260831180552 21 0 0.0 0.0 0.00 0.00 0.00 82 1021.2
20260831180109 21 0 0.0 0.0 0.00 0.00 0.00 85 1021.3
20260831175552 21 0 0.0 0.0 0.00 0.00 0.00 84 1021.4
20260831175052 21 0 0.0 0.0 0.00 0.00 0.00 82 1021.4
20260831174557 22 0 0.0 0.0 0.00 0.00 0.00 82 1021.4
20260831174055 22 0 0.0 0.0 0.00 0.00 0.00 79 1021.3
20260831173552 22 0 0.0 0.0 0.00 0.00 0.00 80 1021.4
20260831173103 22 0 0.0 0.0 0.00 0.00 0.00 81 1021.6
20260831172552 22 0 0.0 0.0 0.00 0.00 0.00 84 1021.6
20260831172052 22 0 0.0 0.0 0.00 0.00 0.00 82 1021.5
20260831171605 22 0 0.0 3.2 0.00 0.00 0.00 79 1021.5
20260831171052 22 0 0.0 4.8 0.00 0.00 0.00 79 1021.5
20260831170552 22 0 1.6 4.8 0.00 0.00 0.00 79 1021.4
20260831165551 22 0 0.0 8.0 0.00 0.00 0.00 76 1021.4
20260831165051 22 298 0.0 4.8 0.00 0.00 0.00 76 1021.3
20260831164630 22 0 0.0 0.0 0.00 0.00 0.00 77 1021.5
20260831164053 22 0 0.0 0.0 0.00 0.00 0.00 77 1021.5
20260831163552 22 0 0.0 6.4 0.00 0.00 0.00 77 1021.6
20260831163104 22 0 0.0 6.4 0.00 0.00 0.00 78 1021.6
20260831162552 22 0 1.6 6.4 0.00 0.00 0.00 77 1021.5
20260831162055 22 0 0.0 6.4 0.00 0.00 0.00 74 1021.5
20260831161602 22 0 0.0 6.4 0.00 0.00 0.00 80 1021.5
20260831161054 22 0 0.0 3.2 0.00 0.00 0.00 75 1021.5
20260831160554 22 0 0.0 0.0 0.00 0.00 0.00 75 1021.4
20260831160104 22 0 0.0 1.6 0.00 0.00 0.00 80 1021.4
20260831155555 21 0 0.0 3.2 0.00 0.00 0.00 78 1021.4
20260831155054 21 0 0.0 3.2 0.00 0.00 0.00 77 1021.7
20260831154626 21 0 0.0 3.2 0.00 0.00 0.00 78 1021.7
20260831154052 21 0 0.0 0.0 0.00 0.00 0.00 82 1021.7
20260831153555 21 0 0.0 6.4 0.00 0.00 0.00 79 1021.8
20260831153106 21 0 0.0 6.4 0.00 0.00 0.00 79 1021.8
20260831152552 21 0 0.0 6.4 0.00 0.00 0.00 80 1021.8
20260831152056 21 0 0.0 0.0 0.00 0.00 0.00 81 1021.8
20260831151559 21 0 0.0 0.0 0.00 0.00 0.00 81 1022.0
20260831151052 21 0 0.0 0.0 0.00 0.00 0.00 81 1021.8
20260831150552 21 0 0.0 0.0 0.00 0.00 0.00 83 1021.8
20260831150105 21 0 0.0 0.0 0.00 0.00 0.00 82 1022.0
20260831145556 21 0 0.0 0.0 0.00 0.00 0.00 81 1021.9
20260831145052 21 0 0.0 0.0 0.00 0.00 0.00 82 1021.8
20260831144625 20 0 0.0 0.0 0.00 0.00 0.00 81 1021.8
20260831144052 20 0 0.0 0.0 0.00 0.00 0.00 81 1021.9
20260831143552 20 0 0.0 0.0 0.00 0.00 0.00 84 1021.8
20260831143109 20 0 0.0 0.0 0.00 0.00 0.00 84 1022.0
20260831142552 20 0 0.0 0.0 0.00 0.00 0.00 83 1021.8
20260831142053 20 0 0.0 0.0 0.00 0.00 0.00 83 1021.7
20260831141619 20 0 0.0 0.0 0.00 0.00 0.00 82 1021.8
20260831141055 20 0 0.0 0.0 0.00 0.00 0.00 82 1021.7
20260831140552 20 0 0.0 0.0 0.00 0.00 0.00 81 1021.7
20260831135551 20 0 0.0 0.0 0.00 0.00 0.00 82 1021.7
20260831135052 20 0 0.0 0.0 0.00 0.00 0.00 82 1021.7
20260831134605 20 0 0.0 0.0 0.00 0.00 0.00 83 1021.6
20260831134052 20 0 0.0 0.0 0.00 0.00 0.00 85 1021.8
20260831133552 20 0 0.0 0.0 0.00 0.00 0.00 85 1021.8
20260831133101 20 0 0.0 0.0 0.00 0.00 0.00 84 1021.8
20260831132552 20 0 0.0 0.0 0.00 0.00 0.00 85 1021.7
20260831132052 20 0 0.0 0.0 0.00 0.00 0.00 85 1021.7
20260831131602 20 0 0.0 0.0 0.00 0.00 0.00 86 1021.7
20260831131129 20 0 0.0 0.0 0.00 0.00 0.00 87 1021.7
20260831130552 20 0 0.0 0.0 0.00 0.00 0.00 87 1021.7
20260831130057 20 0 0.0 0.0 0.00 0.00 0.00 86 1021.6
20260831125552 19 0 0.0 0.0 0.00 0.00 0.00 87 1021.5
20260831125052 19 0 0.0 0.0 0.00 0.00 0.00 90 1021.7
20260831124603 19 0 0.0 0.0 0.00 0.00 0.00 89 1021.7
20260831124051 19 0 0.0 0.0 0.00 0.00 0.00 89 1021.7
20260831123551 19 0 0.0 0.0 0.00 0.00 0.00 88 1021.7
20260831123107 19 0 0.0 0.0 0.00 0.00 0.00 88 1021.7
20260831122556 19 0 0.0 0.0 0.00 0.00 0.00 87 1021.8
20260831122048 19 0 0.0 0.0 0.00 0.00 0.00 88 1021.7
20260831121558 19 0 0.0 0.0 0.00 0.00 0.00 88 1021.7
20260831121052 19 0 0.0 0.0 0.00 0.00 0.00 89 1021.6
20260831120551 19 0 0.0 1.6 0.00 0.00 0.00 89 1021.6
20260831120100 19 0 0.0 3.2 0.00 0.00 0.00 89 1021.7
20260831115551 19 0 0.0 4.8 0.00 0.00 0.00 89 1021.8
20260831115048 19 0 1.6 4.8 0.00 0.00 0.00 89 1021.7
20260831114605 19 0 0.0 3.2 0.00 0.00 0.00 89 1021.6
20260831114051 19 0 0.0 0.0 0.00 0.00 0.00 89 1021.6
20260831113551 18 0 0.0 0.0 0.00 0.00 0.00 89 1021.5
20260831113107 18 0 0.0 0.0 0.00 0.00 0.00 90 1021.5
20260831112554 18 0 0.0 0.0 0.00 0.00 0.00 91 1021.6
20260831112052 18 0 0.0 0.0 0.00 0.00 0.00 91 1021.6
20260831111607 18 0 0.0 0.0 0.00 0.00 0.00 91 1021.3
20260831111052 18 0 0.0 0.0 0.00 0.00 0.00 91 1021.4
20260831110554 18 0 0.0 0.0 0.00 0.00 0.00 91 1021.3
20260831110056 18 0 0.0 0.0 0.00 0.00 0.00 91 1021.2
20260831105552 18 0 0.0 0.0 0.00 0.00 0.00 91 1021.1
20260831105052 18 0 0.0 0.0 0.00 0.00 0.00 91 1020.9
20260831104605 18 0 0.0 0.0 0.00 0.00 0.00 91 1020.9
20260831104051 18 0 0.0 0.0 0.00 0.00 0.00 91 1020.8
20260831103552 18 0 0.0 0.0 0.00 0.00 0.00 91 1020.8
20260831103105 18 0 0.0 0.0 0.00 0.00 0.00 91 1020.8
20260831102554 18 0 0.0 0.0 0.00 0.00 0.00 91 1020.6
20260831102052 18 0 0.0 0.0 0.00 0.00 0.00 91 1020.7
20260831101559 18 0 0.0 0.0 0.00 0.00 0.00 91 1020.5
20260831101052 18 0 0.0 0.0 0.00 0.00 0.00 91 1020.7
20260831100551 18 0 0.0 0.0 0.00 0.00 0.00 90 1020.7
20260831100107 18 0 0.0 0.0 0.00 0.00 0.00 90 1020.8
20260831095551 18 0 0.0 0.0 0.00 0.00 0.00 90 1020.8
20260831095052 18 0 0.0 0.0 0.00 0.00 0.00 90 1020.8
20260831094607 18 0 0.0 4.8 0.00 0.00 0.00 91 1020.9
20260831094056 18 0 0.0 4.8 0.00 0.00 0.00 91 1020.9
20260831093552 18 0 1.6 4.8 0.00 0.00 0.00 91 1020.7
20260831093101 18 65 0.0 0.0 0.00 0.00 0.00 91 1020.7
20260831092552 18 0 0.0 0.0 0.00 0.00 0.00 91 1020.7
20260831092052 18 0 0.0 0.0 0.00 0.00 0.00 92 1020.6
20260831091600 18 0 0.0 0.0 0.00 0.00 0.00 92 1020.4
20260831091053 18 0 0.0 0.0 0.00 0.00 0.00 91 1020.5
20260831090553 18 0 0.0 0.0 0.00 0.00 0.00 91 1020.6
20260831090059 18 0 0.0 0.0 0.00 0.00 0.00 91 1020.5
20260831085554 18 0 0.0 0.0 0.00 0.00 0.00 92 1020.4
20260831085053 18 0 0.0 0.0 0.00 0.00 0.00 91 1020.3
20260831084611 18 0 0.0 0.0 0.00 0.00 0.00 91 1020.3
20260831084052 17 0 0.0 0.0 0.00 0.00 0.00 91 1020.4
20260831083553 18 0 0.0 0.0 0.00 0.00 0.00 90 1020.3
20260831083110 18 0 0.0 0.0 0.00 0.00 0.00 91 1020.3
20260831082553 18 0 0.0 0.0 0.00 0.00 0.00 91 1020.5
20260831082053 18 0 0.0 0.0 0.00 0.00 0.00 91 1020.7
20260831081604 18 0 0.0 0.0 0.00 0.00 0.00 91 1020.7
20260831081053 18 0 0.0 0.0 0.00 0.00 0.00 91 1020.7
20260831080552 18 0 0.0 0.0 0.00 0.00 0.00 90 1020.7
20260831080056 18 0 0.0 0.0 0.00 0.00 0.00 90 1020.5
20260831075553 18 0 0.0 0.0 0.00 0.00 0.00 90 1020.5
20260831075053 18 0 0.0 0.0 0.00 0.00 0.00 90 1020.5
20260831074616 18 0 0.0 0.0 0.00 0.00 0.00 90 1020.5
20260831074052 18 0 0.0 0.0 0.00 0.00 0.00 90 1020.5
20260831073553 18 0 0.0 0.0 0.00 0.00 0.00 90 1020.6
20260831073059 18 0 0.0 0.0 0.00 0.00 0.00 90 1020.6
20260831072552 18 0 0.0 0.0 0.00 0.00 0.00 89 1020.6
20260831072054 18 0 0.0 0.0 0.00 0.00 0.00 89 1020.5
20260831071602 19 0 0.0 0.0 0.00 0.00 0.00 89 1020.5
20260831071052 19 0 0.0 0.0 0.00 0.00 0.00 88 1020.5
20260831070553 19 0 0.0 0.0 0.00 0.00 0.00 88 1020.6
20260831070108 19 0 0.0 4.8 0.00 0.00 0.00 87 1020.7
20260831065552 20 0 0.0 4.8 0.00 0.00 0.00 87 1020.5
20260831065052 20 0 0.0 4.8 0.00 0.00 0.00 87 1020.4
20260831064604 20 0 0.0 1.6 0.00 0.00 0.00 88 1020.6
20260831064051 20 0 0.0 3.2 0.00 0.00 0.00 88 1020.7
20260831063553 20 0 0.0 3.2 0.00 0.00 0.00 88 1020.7
20260831063055 20 0 0.0 3.2 0.00 0.00 0.00 88 1020.7
20260831062552 20 0 0.0 1.6 0.00 0.00 0.00 87 1020.6
20260831062056 20 0 0.0 3.2 0.00 0.00 0.00 87 1020.7
20260831061555 20 0 0.0 3.2 0.00 0.00 0.00 86 1020.6
20260831061049 20 34 0.0 3.2 0.00 0.00 0.00 86 1020.6
20260831060552 20 13 0.0 3.2 0.00 0.00 0.00 86 1020.7
20260831060109 20 0 0.0 3.2 0.00 0.00 0.00 86 1020.7
20260831055551 20 323 0.0 1.6 0.00 0.00 0.00 86 1020.7
20260831055050 20 0 0.0 0.0 0.00 0.00 0.00 86 1020.7
20260831054604 20 0 0.0 0.0 0.00 0.00 0.00 86 1020.7
20260831054052 20 0 0.0 0.0 0.00 0.00 0.00 86 1020.8
20260831053556 20 0 0.0 1.6 0.00 0.00 0.00 86 1020.8
20260831053057 20 0 0.0 1.6 0.00 0.00 0.00 86 1020.8
20260831052549 20 0 0.0 0.0 0.00 0.00 0.00 86 1020.8
20260831052051 20 0 0.0 0.0 0.00 0.00 0.00 85 1020.7
20260831051611 20 0 0.0 0.0 0.00 0.00 0.00 84 1020.6
20260831051052 20 0 0.0 0.0 0.00 0.00 0.00 85 1020.6
20260831050552 20 0 0.0 0.0 0.00 0.00 0.00 85 1020.5
20260831050100 20 0 0.0 0.0 0.00 0.00 0.00 85 1020.7
20260831045552 20 0 0.0 1.6 0.00 0.00 0.00 85 1020.6
20260831045054 20 0 0.0 1.6 0.00 0.00 0.00 84 1020.6
20260831044613 21 0 0.0 0.0 0.00 0.00 0.00 83 1020.5
20260831044052 21 0 0.0 1.6 0.00 0.00 0.00 81 1020.6
20260831043551 21 0 0.0 3.2 0.00 0.00 0.00 82 1020.7
20260831043054 21 0 0.0 3.2 0.00 0.00 0.00 80 1020.7
20260831042554 21 0 0.0 0.0 0.00 0.00 0.00 82 1020.8
20260831042054 21 0 0.0 1.6 0.00 0.00 0.00 82 1020.7
20260831041602 21 0 0.0 3.2 0.00 0.00 0.00 82 1020.7
20260831041052 21 0 0.0 6.4 0.00 0.00 0.00 78 1020.7
20260831040552 21 252 1.6 6.4 0.00 0.00 0.00 79 1020.7
20260831040055 21 0 0.0 4.8 0.00 0.00 0.00 80 1020.8
20260831035551 21 0 0.0 3.2 0.00 0.00 0.00 83 1020.8
20260831035051 21 0 0.0 0.0 0.00 0.00 0.00 83 1020.9
20260831034607 21 0 0.0 0.0 0.00 0.00 0.00 81 1020.8
20260831034051 21 0 0.0 4.8 0.00 0.00 0.00 80 1020.8
20260831033551 21 0 0.0 4.8 0.00 0.00 0.00 80 1020.8
20260831033116 21 0 0.0 4.8 0.00 0.00 0.00 80 1020.8
20260831032553 21 0 0.0 8.0 0.00 0.00 0.00 79 1020.8
20260831032054 21 0 0.0 8.0 0.00 0.00 0.00 79 1020.8
20260831031555 21 0 1.6 4.8 0.00 0.00 0.00 79 1020.9
20260831031052 21 235 0.0 4.8 0.00 0.00 0.00 79 1021.0
20260831030552 21 0 0.0 4.8 0.00 0.00 0.00 79 1020.9
20260831030106 22 209 0.0 3.2 0.00 0.00 0.00 79 1020.9
20260831025553 21 0 0.0 0.0 0.00 0.00 0.00 79 1020.9
20260831025053 21 0 0.0 0.0 0.00 0.00 0.00 82 1020.8
20260831024621 21 0 0.0 0.0 0.00 0.00 0.00 82 1021.0
20260831024052 21 0 0.0 1.6 0.00 0.00 0.00 83 1020.8
20260831023554 21 0 0.0 1.6 0.00 0.00 0.00 83 1020.9
20260831023103 21 0 0.0 1.6 0.00 0.00 0.00 84 1021.0
20260831022556 21 0 0.0 1.6 0.00 0.00 0.00 83 1020.9
20260831022053 21 0 0.0 1.6 0.00 0.00 0.00 82 1021.0
20260831021607 21 0 0.0 1.6 0.00 0.00 0.00 82 1021.1
20260831021054 21 0 0.0 1.6 0.00 0.00 0.00 83 1021.1
20260831020557 21 0 0.0 3.2 0.00 0.00 0.00 82 1021.1
20260831020110 22 0 0.0 3.2 0.00 0.00 0.00 81 1021.1
20260831015552 22 0 0.0 1.6 0.00 0.00 0.00 80 1021.2
20260831015052 21 0 0.0 1.6 0.00 0.00 0.00 81 1021.1
20260831014604 22 0 0.0 3.2 0.00 0.00 0.00 80 1021.1
20260831014053 22 0 0.0 3.2 0.00 0.00 0.00 80 1021.0
20260831013553 22 25 0.0 3.2 0.00 0.00 0.00 81 1021.0
20260831013058 21 0 0.0 1.6 0.00 0.00 0.00 81 1021.0
20260831012553 22 0 0.0 8.0 0.00 0.00 0.00 80 1021.0
20260831012053 21 0 0.0 8.0 0.00 0.00 0.00 82 1021.0
20260831011557 21 0 0.0 8.0 0.00 0.00 0.00 85 1020.9
20260831011052 21 0 0.0 0.0 0.00 0.00 0.00 84 1020.7
20260831010552 22 0 0.0 0.0 0.00 0.00 0.00 82 1020.7
20260831010109 22 0 0.0 1.6 0.00 0.00 0.00 81 1020.5
20260831005552 21 0 0.0 1.6 0.00 0.00 0.00 84 1020.6
20260831005055 21 0 0.0 0.0 0.00 0.00 0.00 84 1020.6
20260831004606 21 0 0.0 0.0 0.00 0.00 0.00 84 1020.6
20260831004055 21 0 0.0 0.0 0.00 0.00 0.00 85 1020.5
20260831003554 21 0 0.0 0.0 0.00 0.00 0.00 85 1020.4
20260831003103 21 0 0.0 0.0 0.00 0.00 0.00 84 1020.2
20260831002551 22 0 0.0 0.0 0.00 0.00 0.00 83 1020.1
20260831002048 22 0 0.0 0.0 0.00 0.00 0.00 83 1020.0
20260831001602 22 0 0.0 0.0 0.00 0.00 0.00 81 1019.9
20260831001049 22 0 0.0 0.0 0.00 0.00 0.00 81 1019.9
20260831000549 22 0 0.0 0.0 0.00 0.00 0.00 80 1019.8
20260831000059 22 0 0.0 0.0 0.00 0.00 0.00 81 1019.8
20260830235551 22 0 0.0 0.0 0.00 0.00 0.00 81 1019.8
20260830235048 22 0 0.0 0.0 0.00 0.00 0.00 80 1019.8
20260830234605 22 0 0.0 0.0 0.00 0.00 0.00 81 1019.9